Date,TemperatureHighF,TemperatureAvgF,TemperatureLowF,DewpointHighF,DewpointAvgF,DewpointLowF,HumidityHigh,HumidityAvg,HumidityLow,PressureMaxIn,PressureMinIn,WindSpeedMaxMPH,WindSpeedAvgMPH,GustSpeedMaxMPH,PrecipitationSumIn
2014-1-1,61,61,61,44,44,44,52,52,52,30.12,30.12,1,1,4,0.00
2014-1-2,61,61,61,44,44,44,52,52,52,30.12,30.12,1,1,4,0.00
2014-1-3,61,61,61,44,44,44,52,52,52,30.12,30.12,1,1,4,0.00
2014-1-4,61,61,61,44,44,44,52,52,52,30.12,30.12,1,1,4,0.00
2014-1-5,61,61,61,44,44,44,52,52,52,30.12,30.12,1,1,4,0.00
2014-1-6,61,61,61,44,44,44,52,52,52,30.12,30.12,1,1,4,0.00
2014-1-7,61,61,61,44,44,44,52,52,52,30.12,30.12,1,1,4,0.00
2014-1-8,61,61,61,44,44,44,52,52,52,30.12,30.12,1,1,4,0.00
2014-1-9,61,61,61,44,44,44,52,52,52,30.12,30.12,1,1,4,0.00
2014-1-10,61,61,61,44,44,44,52,52,52,30.12,30.12,1,1,4,0.00
2014-1-11,61,61,61,44,44,44,52,52,52,30.12,30.12,1,1,4,0.00
2014-1-12,61,61,61,44,44,44,52,52,52,30.12,30.12,1,1,4,0.00
2014-1-13,61,61,61,44,44,44,52,52,52,30.12,30.12,1,1,4,0.00
2014-1-14,61,61,61,44,44,44,52,52,52,30.12,30.12,1,1,4,0.00
2014-1-15,61,61,61,44,44,44,52,52,52,30.12,30.12,1,1,4,0.00
2014-1-16,61,61,61,44,44,44,52,52,52,30.12,30.12,1,1,4,0.00
2014-2-7,56,44,35,36,27,22,63,51,37,30.21,30.11,3,1,4,0.00
2014-2-8,57,46,40,36,31,26,70,56,39,30.13,29.90,4,1,7,0.00
2014-2-9,49,46,43,48,40,29,95,83,45,29.89,29.73,8,2,11,0.04
2014-2-10,57,52,48,52,48,44,96,88,61,29.72,29.43,14,5,17,0.96
2014-2-11,59,47,43,44,40,38,89,77,55,29.95,29.73,4,2,7,0.13
2014-2-12,52,49,44,48,45,42,95,86,69,29.85,29.43,11,6,21,1.15
2014-2-13,66,54,41,53,50,39,96,87,56,30.00,29.64,6,1,9,0.00
2014-2-14,82,61,53,61,56,52,99,85,45,29.95,29.81,4,0,5,0.00
2014-2-15,74,60,54,60,55,52,99,85,58,29.89,29.73,8,2,11,0.00
2014-2-16,66,57,52,58,54,52,98,89,73,29.77,29.66,9,2,14,0.00
2014-2-17,70,54,38,55,44,37,99,72,34,29.94,29.75,6,1,8,0.00
2014-2-18,71,50,34,49,41,33,99,76,32,29.90,29.81,4,0,6,0.00
2014-2-19,76,54,39,51,45,38,99,76,29,29.94,29.77,6,1,8,0.00
2014-2-20,50,49,47,50,48,47,99,99,95,29.93,29.78,4,0,7,0.00
2014-2-21,75,49,40,48,47,37,99,94,28,29.95,29.83,3,0,5,0.00
2014-2-22,78,54,37,47,41,35,99,69,25,29.86,29.70,7,1,11,0.00
2014-2-23,80,55,38,50,42,38,99,68,25,29.75,29.62,5,1,7,0.00
2014-2-24,85,56,39,54,44,38,99,69,22,29.76,29.66,4,0,5,0.00
2014-2-25,84,57,38,50,44,38,99,69,24,29.76,29.62,4,1,7,0.00
2014-2-26,82,62,41,52,47,40,99,66,28,29.70,29.59,5,2,8,0.00
2014-2-27,55,52,52,52,52,48,98,97,82,29.70,29.39,6,2,8,0.05
2014-2-28,64,54,52,52,51,42,98,91,55,30.41,29.51,4,1,5,3.51
2014-3-1,59,55,53,56,53,47,96,91,78,29.70,29.54,9,3,14,0.72
2014-3-2,69,59,50,53,49,46,92,72,50,30.00,29.72,7,2,11,0.01
2014-3-3,62,56,50,58,51,45,91,84,73,30.32,29.99,7,2,14,0.01
2014-3-4,60,56,52,56,53,51,96,91,80,30.30,30.21,4,1,6,0.19
2014-3-5,63,58,53,59,54,52,99,88,79,30.29,30.19,5,1,10,0.02
2014-3-6,69,62,55,60,57,53,96,85,70,30.25,30.14,6,2,9,0.00
2014-5-6,78,63,53,54,50,46,90,65,34,30.14,29.99,6,2,11,0.24
2014-5-7,81,65,54,52,47,36,89,58,22,30.03,29.92,8,2,17,0.00
2014-5-8,82,65,52,55,50,47,82,60,32,30.09,29.97,6,2,9,0.00
2014-5-9,74,64,55,57,54,47,90,71,46,30.21,30.08,8,4,11,0.00
2014-5-10,82,66,53,59,52,47,93,64,33,30.24,30.15,6,2,9,0.00
2014-5-11,78,64,50,48,40,34,86,47,21,30.24,30.12,11,3,16,0.00
2014-5-12,87,84,52,44,43,32,61,25,18,30.24,30.10,9,1,14,0.04
2014-5-13,87,87,87,44,44,44,23,23,23,30.26,30.18,0,0,0,0.00
2014-5-14,96,82,60,54,49,39,71,35,14,30.05,29.95,5,0,8,0.00
2014-5-15,100,84,65,57,50,40,62,35,14,30.04,29.89,2,0,12,0.00
2014-5-16,97,81,0,52,43,36,55,27,12,29.99,29.88,5,1,8,0.00
2014-5-17,94,76,61,54,49,40,70,41,21,29.93,29.79,8,2,12,0.00
2014-5-18,84,70,60,57,52,47,74,56,36,29.85,29.75,7,2,13,0.00
2014-5-19,85,69,59,55,51,47,71,54,33,29.89,29.74,6,2,10,0.01
2014-5-20,78,66,56,53,50,46,79,59,35,29.83,29.73,10,2,14,0.01
2014-5-21,76,66,56,56,52,49,81,64,45,29.91,29.80,5,2,9,0.00
2014-5-22,88,72,58,59,54,48,82,56,27,29.87,29.73,8,2,11,0.00
2014-5-23,92,74,57,60,56,52,86,57,27,29.86,29.75,6,1,9,0.00
2014-5-24,95,75,58,63,58,52,82,57,34,29.90,29.71,7,1,9,0.00
2014-5-25,97,79,52,64,57,-3,71,50,10,29.84,29.72,4,1,97,0.00
2014-5-26,100,82,64,63,56,34,67,44,10,29.84,29.71,4,1,7,0.00
2014-5-27,100,81,63,60,53,47,62,40,19,29.88,29.77,7,2,11,0.00
2014-5-28,93,76,61,56,50,35,66,43,22,29.90,29.79,7,1,11,0.00
2014-5-29,86,74,61,42,36,24,44,27,12,29.96,29.81,4,1,8,0.02
2014-5-30,94,77,62,46,42,32,47,31,14,29.85,29.73,5,1,9,0.00
2014-5-31,86,68,55,54,47,30,85,52,14,29.82,29.75,8,2,12,0.00
2014-6-1,90,72,54,56,50,38,87,51,18,29.87,29.74,5,1,8,0.00
2014-6-2,94,77,61,57,50,8,72,42,10,29.79,29.63,4,1,8,0.00
2014-6-3,86,68,54,55,51,45,87,58,26,29.76,29.65,7,2,12,0.01
2014-6-4,88,71,54,60,53,46,88,57,24,29.84,29.69,7,1,10,0.00
2014-6-5,98,80,60,62,55,50,78,46,20,29.77,29.63,4,1,8,0.00
2014-6-6,97,78,62,63,55,49,70,48,25,29.72,29.59,7,2,12,0.00
2014-6-7,94,75,59,62,56,51,81,55,32,29.71,29.59,6,2,11,0.00
2014-6-8,98,79,59,64,58,52,80,51,25,29.70,29.58,5,1,9,0.00
2014-6-9,106,88,56,63,54,8,71,37,13,29.69,29.47,4,1,8,0.00
2014-6-10,108,90,71,67,56,34,69,37,11,29.63,29.50,3,1,5,0.17
2014-6-11,106,83,62,64,57,43,80,48,12,29.62,29.51,9,2,15,0.00
2014-6-12,85,70,56,61,56,52,87,65,40,29.74,29.62,9,3,15,0.00
2014-6-13,85,69,55,56,53,50,88,59,33,29.83,29.73,11,3,18,0.00
2014-6-14,89,76,59,56,51,42,76,46,21,29.87,29.77,6,1,9,0.00
2014-6-15,88,79,64,53,50,44,61,38,22,29.81,29.68,5,1,8,0.00
2014-6-16,87,71,59,59,54,50,76,56,34,29.68,29.60,7,3,11,0.00
2014-6-17,82,68,57,52,50,46,79,54,33,29.75,29.65,8,3,11,0.00
2014-6-18,88,64,0,52,44,31,73,37,16,29.84,29.75,4,0,6,0.00
2014-6-19,94,86,62,53,42,38,56,25,14,29.84,29.76,4,1,8,0.00
2014-6-20,94,87,64,57,53,38,55,33,14,30.01,29.76,5,1,9,0.00
2014-6-21,93,93,93,54,54,54,27,27,27,29.99,29.86,4,2,8,0.00
2014-6-22,93,93,93,54,54,54,27,27,27,29.91,29.81,2,2,5,0.00
2014-6-23,93,93,93,54,54,54,27,27,27,29.95,29.84,2,2,5,0.00
2014-6-24,93,93,93,54,54,54,27,27,27,29.95,29.85,2,2,5,0.00
2014-6-25,93,93,93,54,54,54,27,27,27,29.97,29.88,2,2,5,0.00
2014-6-26,93,93,93,54,54,54,27,27,27,29.95,29.89,2,2,5,0.00
2014-6-27,93,93,93,54,54,54,27,27,27,29.99,29.91,2,2,5,0.00
2014-6-28,93,93,93,54,54,54,27,27,27,29.98,29.87,2,2,5,0.00
2014-6-29,0,0,0,54,54,54,0,0,100,29.95,29.95,0,0,0,0.00
2014-7-3,57,46,35,36,30,22,63,53,39,30.56,30.40,3,1,4,0.00
2014-7-4,49,44,40,41,31,26,90,63,45,30.40,30.20,5,2,8,0.14
2014-7-5,0,0,0,54,54,54,0,0,100,29.99,29.89,0,0,0,0.00
2014-7-6,0,0,0,54,54,54,0,0,100,30.08,29.99,0,0,0,0.00
2014-7-7,0,0,0,54,54,54,0,0,100,30.07,30.07,0,0,0,0.00
2014-7-8,0,0,0,54,54,54,0,0,100,30.07,30.07,0,0,0,0.00
2014-7-9,100,43,0,64,55,39,96,36,24,30.35,29.85,7,1,10,0.00
2014-7-10,96,77,63,64,60,56,81,57,31,29.97,29.84,8,2,14,0.00
2014-7-11,91,74,63,63,59,48,82,61,25,29.97,29.85,8,3,12,0.00
2014-7-12,92,75,61,61,57,55,83,58,32,30.07,29.97,8,2,11,0.00
2014-7-13,96,76,61,64,59,56,83,59,31,30.12,29.77,7,2,10,0.00
2014-7-14,101,83,62,69,62,57,83,51,25,30.04,29.86,5,1,8,0.00
2014-7-15,109,89,72,70,58,13,66,39,12,29.91,29.85,6,2,11,0.00
2014-7-16,98,83,71,67,61,54,66,48,29,30.00,29.91,6,2,26,0.00
2014-7-17,93,76,64,67,61,59,83,61,40,30.03,29.92,8,3,14,0.00
2014-7-18,89,73,62,64,60,57,85,67,43,30.04,29.92,9,3,14,0.00
2014-7-19,90,75,62,65,60,56,86,62,37,30.05,29.91,8,2,11,0.00
2014-7-20,96,77,62,66,60,57,84,58,33,30.00,29.89,6,2,10,0.00
2014-7-21,84,72,65,64,60,57,80,66,42,30.00,29.93,7,2,11,0.00
2014-7-22,88,75,65,64,61,59,82,63,38,30.07,29.99,8,2,12,0.00
2014-7-23,91,74,64,66,60,55,86,65,33,30.16,30.03,6,2,11,0.00
2014-7-24,91,77,63,63,59,52,84,57,28,30.20,30.03,4,1,8,0.00
2014-7-25,99,84,67,65,58,42,77,46,17,30.08,29.83,2,0,5,0.00
2014-7-26,105,88,68,63,53,35,67,35,11,29.94,29.83,3,0,5,0.00
2014-7-27,106,88,73,62,52,35,50,33,11,29.98,29.89,8,1,12,0.00
2014-7-28,101,84,69,63,57,49,61,41,19,30.03,29.91,5,1,8,0.00
2014-7-29,96,80,66,63,54,36,70,45,13,30.06,29.97,8,2,17,0.00
2014-7-30,81,70,66,61,56,52,68,62,52,30.09,30.05,4,1,6,0.00
2014-7-31,92,79,71,62,59,58,64,51,34,29.95,29.93,5,1,8,0.00
2014-8-1,104,85,68,70,60,44,70,47,14,30.00,29.85,5,1,8,0.00
2014-8-2,108,88,69,65,55,42,68,39,11,29.93,29.82,4,1,8,0.00
2014-8-3,98,79,62,63,59,55,85,53,27,29.96,29.84,9,2,12,0.00
2014-8-4,84,72,60,62,59,55,88,66,42,30.00,29.91,7,2,11,3.52
2014-8-5,81,73,62,65,61,57,84,67,53,30.03,29.95,4,1,8,9.01
2014-8-6,77,75,72,70,67,62,88,77,71,30.12,30.00,3,0,7,0.51
2014-8-7,96,82,70,73,66,58,91,62,39,30.07,29.93,4,1,9,4.85
2014-8-8,98,79,66,70,62,57,77,57,34,30.00,29.84,8,2,12,2.75
2014-8-9,96,78,64,68,60,54,80,55,35,29.96,29.83,8,2,11,2.59
2014-8-10,95,74,60,64,58,55,85,60,32,29.99,29.88,9,2,14,2.35
2014-8-11,93,74,59,64,58,50,87,59,32,30.05,29.93,6,1,10,0.00
2014-8-12,101,81,63,66,57,46,81,49,19,29.99,29.87,8,1,13,0.00
2014-8-13,88,74,61,60,56,47,83,57,26,30.02,29.90,8,2,14,0.00
2014-8-14,91,75,60,63,59,56,88,61,37,30.03,29.93,9,3,16,0.00
2014-8-15,97,79,65,64,58,43,79,53,18,30.00,29.90,97,2,98,0.00
2014-8-16,101,80,65,64,57,44,74,48,20,30.04,29.94,4,1,8,0.00
2014-8-17,103,80,64,63,54,34,71,46,14,30.08,29.96,6,1,9,0.00
2014-8-18,100,78,62,64,56,40,81,52,15,30.06,29.89,6,1,11,0.00
2014-8-19,94,74,61,64,59,54,87,64,32,29.93,29.77,8,2,14,0.01
2014-8-20,88,72,60,63,60,54,89,69,39,29.99,29.77,10,3,15,0.04
2014-8-21,81,71,62,63,60,58,87,69,49,29.96,29.86,11,3,16,0.15
2014-8-22,95,77,62,67,61,58,87,61,35,30.02,29.91,7,2,12,0.13
2014-8-23,88,73,61,62,59,57,85,65,38,29.97,29.86,13,3,17,0.28
2014-8-24,95,76,61,64,59,53,86,59,30,30.00,29.74,7,1,10,0.44
2014-8-25,93,74,61,64,57,52,82,58,29,29.93,29.66,11,2,16,0.46
2014-8-26,90,72,61,62,58,55,84,63,36,30.00,29.84,10,2,14,0.83
2014-8-27,94,76,62,64,58,55,82,56,32,30.06,29.93,8,2,11,0.64
2014-8-28,95,79,65,65,59,52,80,53,27,30.12,29.99,6,1,10,0.08
2014-8-29,96,80,65,65,59,54,75,52,28,30.10,29.92,6,1,11,0.09
2014-8-30,89,75,64,64,60,57,82,61,40,29.99,29.86,6,2,9,0.52
2014-8-31,95,80,68,64,57,53,69,48,24,29.94,29.82,8,2,11,0.34
2014-9-1,95,80,67,62,58,54,73,49,29,29.96,29.82,4,1,7,0.11
2014-9-2,98,86,66,62,57,54,70,41,26,29.89,29.75,2,1,4,0.04
2014-9-3,93,77,62,62,58,54,84,54,31,29.86,29.73,8,2,13,10.81
2014-9-4,93,79,60,64,61,56,86,57,36,29.85,29.67,4,1,7,1.39
2014-9-5,94,86,78,61,55,49,56,36,24,29.84,29.70,2,1,4,0.39
2014-9-6,91,91,91,49,49,49,24,24,24,29.93,29.83,2,2,3,0.00
2014-9-7,91,91,91,49,49,49,24,24,24,30.00,29.86,2,2,3,0.00
2014-9-8,91,91,91,49,49,49,24,24,24,29.94,29.78,2,2,3,0.00
2014-9-9,91,80,59,55,51,48,84,42,24,29.98,29.85,8,2,12,3.76
2014-9-10,91,74,57,60,54,48,86,56,25,30.06,29.91,3,1,5,0.50
2014-9-11,99,80,61,61,54,48,79,46,19,30.01,29.84,3,0,4,0.00
2014-9-12,102,83,66,58,53,44,64,40,15,29.96,29.82,3,0,4,0.21
2014-9-13,105,84,67,61,53,44,66,39,13,29.94,29.80,4,0,8,0.35
2014-9-14,105,84,69,64,56,44,66,43,13,29.88,29.75,5,0,7,0.46
2014-9-15,100,80,65,64,57,50,73,48,25,29.90,29.79,8,1,10,1.76
2014-9-16,95,77,65,60,54,49,71,49,24,29.96,29.85,7,2,10,8.92
2014-9-17,93,76,63,60,55,50,79,52,26,29.98,29.82,4,1,7,0.20
2014-9-18,92,77,64,65,58,47,77,55,27,29.86,29.75,5,2,9,1.87
2014-9-19,86,76,67,67,63,58,81,65,43,29.94,29.85,5,1,9,0.19
2014-9-20,90,77,64,64,61,58,83,60,36,29.95,29.84,8,1,11,0.54
2014-9-21,89,76,66,66,61,58,86,63,42,29.98,29.86,8,2,13,11.36
2014-9-22,81,71,63,62,59,58,84,68,46,30.03,29.93,5,2,11,16.84